owner,sensor,date,latitude,longitude,vertical_datum,wind_speed,wind_to_direction,wind_speed_of_gust,qcFlag 
COMPS,ioos:station:USF.COMPS:FHP:1,2016-04-01T00:00:00Z,28.1530,-82.8010,10.0,6.13,193.68,7.64,'1111122,1111122,1111122' 
COMPS,ioos:station:USF.COMPS:FHP:1,2016-04-01T00:06:00Z,28.1530,-82.8010,10.0,6.03,193.46,7.15,'1111122,1111122,1111122' 
COMPS,ioos:station:USF.COMPS:FHP:1,2016-04-01T00:12:00Z,28.1530,-82.8010,10.0,5.94,194.33,7.35,'1111122,1111122,1111122' 
COMPS,ioos:station:USF.COMPS:FHP:1,2016-04-01T00:18:00Z,28.1530,-82.8010,10.0,6.07,194.17,7.15,'1111122,1111122,1111122' 
COMPS,ioos:station:USF.COMPS:FHP:1,2016-04-01T00:24:00Z,28.1530,-82.8010,10.0,6.19,193.91,7.25,'1111122,1111122,1111122' 
COMPS,ioos:station:USF.COMPS:FHP:1,2016-04-01T00:30:00Z,28.1530,-82.8010,10.0,5.62,194.15,6.85,'1111122,1111122,1111122' 
COMPS,ioos:station:USF.COMPS:FHP:1,2016-04-01T00:36:00Z,28.1530,-82.8010,10.0,5.14,193.27,6.07,'1111122,1111122,1111122' 
COMPS,ioos:station:USF.COMPS:FHP:1,2016-04-01T00:42:00Z,28.1530,-82.8010,10.0,4.98,191.8,5.87,'1111122,1111122,1111122' 
COMPS,ioos:station:USF.COMPS:FHP:1,2016-04-01T00:48:00Z,28.1530,-82.8010,10.0,4.79,190.67,5.29,'1111122,1111122,1111122' 
COMPS,ioos:station:USF.COMPS:FHP:1,2016-04-01T00:54:00Z,28.1530,-82.8010,10.0,5.29,189.27,6.56,'1111122,1111122,1111122' 
COMPS,ioos:station:USF.COMPS:FHP:1,2016-04-01T01:00:00Z,28.1530,-82.8010,10.0,3.93,181.57,5.29,'1111122,1111122,1111122' 
COMPS,ioos:station:USF.COMPS:FHP:1,2016-04-01T01:06:00Z,28.1530,-82.8010,10.0,4.14,175.87,4.6,'1111122,1111122,1111122' 
COMPS,ioos:station:USF.COMPS:FHP:1,2016-04-01T01:12:00Z,28.1530,-82.8010,10.0,4.54,182.37,5.29,'1111122,1111122,1111122' 
COMPS,ioos:station:USF.COMPS:FHP:1,2016-04-01T01:18:00Z,28.1530,-82.8010,10.0,4.49,189.07,5.09,'1111122,1111122,1111122' 
COMPS,ioos:station:USF.COMPS:FHP:1,2016-04-01T01:24:00Z,28.1530,-82.8010,10.0,4.08,185.0,4.7,'1111122,1111122,1111122' 
COMPS,ioos:station:USF.COMPS:FHP:1,2016-04-01T01:30:00Z,28.1530,-82.8010,10.0,4.27,183.28,4.9,'1111122,1111122,1111122' 
COMPS,ioos:station:USF.COMPS:FHP:1,2016-04-01T01:36:00Z,28.1530,-82.8010,10.0,4.19,185.09,4.9,'1111122,1111122,1111122' 
COMPS,ioos:station:USF.COMPS:FHP:1,2016-04-01T01:42:00Z,28.1530,-82.8010,10.0,4.68,185.5,5.19,'1111122,1111122,1111122' 
COMPS,ioos:station:USF.COMPS:FHP:1,2016-04-01T01:48:00Z,28.1530,-82.8010,10.0,4.4,186.04,5.19,'1111122,1111122,1111122' 
COMPS,ioos:station:USF.COMPS:FHP:1,2016-04-01T01:54:00Z,28.1530,-82.8010,10.0,4.36,188.82,5.09,'1111122,1111122,1111122' 
COMPS,ioos:station:USF.COMPS:FHP:1,2016-04-01T02:00:00Z,28.1530,-82.8010,10.0,4.24,190.36,5.09,'1111122,1111122,1111122' 
COMPS,ioos:station:USF.COMPS:FHP:1,2016-04-01T02:06:00Z,28.1530,-82.8010,10.0,4.45,187.66,4.9,'1111122,1111122,1111122' 
COMPS,ioos:station:USF.COMPS:FHP:1,2016-04-01T02:12:00Z,28.1530,-82.8010,10.0,4.6,183.69,5.19,'1111122,1111122,1111122' 
COMPS,ioos:station:USF.COMPS:FHP:1,2016-04-01T02:18:00Z,28.1530,-82.8010,10.0,4.54,182.0,5.29,'1111122,1111122,1111122' 
COMPS,ioos:station:USF.COMPS:FHP:1,2016-04-01T02:24:00Z,28.1530,-82.8010,10.0,3.96,177.0,4.6,'1111122,1111122,1111122' 
COMPS,ioos:station:USF.COMPS:FHP:1,2016-04-01T02:30:00Z,28.1530,-82.8010,10.0,4.02,177.44,4.9,'1111122,1111122,1111122' 
COMPS,ioos:station:USF.COMPS:FHP:1,2016-04-01T02:36:00Z,28.1530,-82.8010,10.0,3.88,176.38,4.7,'1111122,1111122,1111122' 
COMPS,ioos:station:USF.COMPS:FHP:1,2016-04-01T02:42:00Z,28.1530,-82.8010,10.0,3.73,173.44,4.31,'1111122,1111122,1111122' 
COMPS,ioos:station:USF.COMPS:FHP:1,2016-04-01T02:48:00Z,28.1530,-82.8010,10.0,3.88,167.4,4.41,'1111122,1111122,1111122' 
COMPS,ioos:station:USF.COMPS:FHP:1,2016-04-01T02:54:00Z,28.1530,-82.8010,10.0,4.17,168.87,4.7,'1111122,1111122,1111122' 
COMPS,ioos:station:USF.COMPS:FHP:1,2016-04-01T03:00:00Z,28.1530,-82.8010,10.0,4.18,170.28,4.7,'1111122,1111122,1111122' 
COMPS,ioos:station:USF.COMPS:FHP:1,2016-04-01T03:06:00Z,28.1530,-82.8010,10.0,4.03,168.74,4.7,'1111122,1111122,1111122' 
COMPS,ioos:station:USF.COMPS:FHP:1,2016-04-01T03:12:00Z,28.1530,-82.8010,10.0,4.27,168.38,4.9,'1111122,1111122,1111122' 
COMPS,ioos:station:USF.COMPS:FHP:1,2016-04-01T03:18:00Z,28.1530,-82.8010,10.0,4.06,170.98,4.7,'1111122,1111122,1111122' 
COMPS,ioos:station:USF.COMPS:FHP:1,2016-04-01T03:24:00Z,28.1530,-82.8010,10.0,3.84,167.21,4.5,'1111122,1111122,1111122' 
COMPS,ioos:station:USF.COMPS:FHP:1,2016-04-01T03:30:00Z,28.1530,-82.8010,10.0,3.85,169.33,4.6,'1111122,1111122,1111122' 
COMPS,ioos:station:USF.COMPS:FHP:1,2016-04-01T03:36:00Z,28.1530,-82.8010,10.0,3.81,168.84,4.31,'1111122,1111122,1111122' 
COMPS,ioos:station:USF.COMPS:FHP:1,2016-04-01T03:42:00Z,28.1530,-82.8010,10.0,3.87,167.18,4.5,'1111122,1111122,1111122' 
COMPS,ioos:station:USF.COMPS:FHP:1,2016-04-01T03:48:00Z,28.1530,-82.8010,10.0,3.81,167.25,4.6,'1111122,1111122,1111122' 
COMPS,ioos:station:USF.COMPS:FHP:1,2016-04-01T03:54:00Z,28.1530,-82.8010,10.0,3.66,165.37,4.41,'1111122,1111122,1111122' 
COMPS,ioos:station:USF.COMPS:FHP:1,2016-04-01T04:00:00Z,28.1530,-82.8010,10.0,3.84,169.26,4.5,'1111122,1111122,1111122' 
COMPS,ioos:station:USF.COMPS:FHP:1,2016-04-01T04:06:00Z,28.1530,-82.8010,10.0,4.03,171.55,4.6,'1111122,1111122,1111122' 
COMPS,ioos:station:USF.COMPS:FHP:1,2016-04-01T04:12:00Z,28.1530,-82.8010,10.0,3.81,170.59,4.31,'1111122,1111122,1111122' 
COMPS,ioos:station:USF.COMPS:FHP:1,2016-04-01T04:18:00Z,28.1530,-82.8010,10.0,3.79,169.96,4.5,'1111122,1111122,1111122' 
COMPS,ioos:station:USF.COMPS:FHP:1,2016-04-01T04:24:00Z,28.1530,-82.8010,10.0,4.04,166.61,4.7,'1111122,1111122,1111122' 
COMPS,ioos:station:USF.COMPS:FHP:1,2016-04-01T04:30:00Z,28.1530,-82.8010,10.0,4.42,166.41,4.99,'1111122,1111122,1111122' 
COMPS,ioos:station:USF.COMPS:FHP:1,2016-04-01T04:36:00Z,28.1530,-82.8010,10.0,4.38,166.23,4.99,'1111122,1111122,1111122' 
COMPS,ioos:station:USF.COMPS:FHP:1,2016-04-01T04:42:00Z,28.1530,-82.8010,10.0,4.25,168.9,4.99,'1111122,1111122,1111122' 
COMPS,ioos:station:USF.COMPS:FHP:1,2016-04-01T04:48:00Z,28.1530,-82.8010,10.0,4.11,172.53,4.8,'1111122,1111122,1111122' 
COMPS,ioos:station:USF.COMPS:FHP:1,2016-04-01T04:54:00Z,28.1530,-82.8010,10.0,3.91,173.78,4.6,'1111122,1111122,1111122' 
COMPS,ioos:station:USF.COMPS:FHP:1,2016-04-01T05:00:00Z,28.1530,-82.8010,10.0,4.41,176.26,5.48,'1111122,1111122,1111122' 
COMPS,ioos:station:USF.COMPS:FHP:1,2016-04-01T05:06:00Z,28.1530,-82.8010,10.0,4.88,172.97,5.87,'1111122,1111122,1111122' 
COMPS,ioos:station:USF.COMPS:FHP:1,2016-04-01T05:12:00Z,28.1530,-82.8010,10.0,4.87,172.85,5.87,'1111122,1111122,1111122' 
COMPS,ioos:station:USF.COMPS:FHP:1,2016-04-01T05:18:00Z,28.1530,-82.8010,10.0,4.97,174.24,6.17,'1111122,1111122,1111122' 
COMPS,ioos:station:USF.COMPS:FHP:1,2016-04-01T05:24:00Z,28.1530,-82.8010,10.0,4.38,174.34,5.39,'1111122,1111122,1111122' 
COMPS,ioos:station:USF.COMPS:FHP:1,2016-04-01T05:30:00Z,28.1530,-82.8010,10.0,4.87,170.9,5.68,'1111122,1111122,1111122' 
COMPS,ioos:station:USF.COMPS:FHP:1,2016-04-01T05:36:00Z,28.1530,-82.8010,10.0,5.14,174.18,5.87,'1111122,1111122,1111122' 
COMPS,ioos:station:USF.COMPS:FHP:1,2016-04-01T05:42:00Z,28.1530,-82.8010,10.0,4.69,172.14,5.48,'1111122,1111122,1111122' 
COMPS,ioos:station:USF.COMPS:FHP:1,2016-04-01T05:48:00Z,28.1530,-82.8010,10.0,4.52,169.57,5.48,'1111122,1111122,1111122' 
COMPS,ioos:station:USF.COMPS:FHP:1,2016-04-01T05:54:00Z,28.1530,-82.8010,10.0,4.35,169.6,5.09,'1111122,1111122,1111122' 
COMPS,ioos:station:USF.COMPS:FHP:1,2016-04-01T06:00:00Z,28.1530,-82.8010,10.0,4.49,175.13,5.09,'1111122,1111122,1111122' 
COMPS,ioos:station:USF.COMPS:FHP:1,2016-04-01T06:06:00Z,28.1530,-82.8010,10.0,4.51,176.58,5.09,'1111122,1111122,1111122' 
COMPS,ioos:station:USF.COMPS:FHP:1,2016-04-01T06:12:00Z,28.1530,-82.8010,10.0,4.73,172.87,5.87,'1111122,1111122,1111122' 
COMPS,ioos:station:USF.COMPS:FHP:1,2016-04-01T06:18:00Z,28.1530,-82.8010,10.0,4.73,171.13,5.48,'1111122,1111122,1111122' 
COMPS,ioos:station:USF.COMPS:FHP:1,2016-04-01T06:24:00Z,28.1530,-82.8010,10.0,4.68,170.73,5.48,'1111122,1111122,1111122' 
COMPS,ioos:station:USF.COMPS:FHP:1,2016-04-01T06:30:00Z,28.1530,-82.8010,10.0,4.94,171.17,5.58,'1111122,1111122,1111122' 
COMPS,ioos:station:USF.COMPS:FHP:1,2016-04-01T06:36:00Z,28.1530,-82.8010,10.0,5.16,173.54,5.78,'1111122,1111122,1111122' 
COMPS,ioos:station:USF.COMPS:FHP:1,2016-04-01T06:42:00Z,28.1530,-82.8010,10.0,4.99,176.19,5.87,'1111122,1111122,1111122' 
COMPS,ioos:station:USF.COMPS:FHP:1,2016-04-01T06:48:00Z,28.1530,-82.8010,10.0,4.99,176.83,5.58,'1111122,1111122,1111122' 
COMPS,ioos:station:USF.COMPS:FHP:1,2016-04-01T06:54:00Z,28.1530,-82.8010,10.0,5.08,174.97,5.68,'1111122,1111122,1111122' 
COMPS,ioos:station:USF.COMPS:FHP:1,2016-04-01T07:00:00Z,28.1530,-82.8010,10.0,4.93,177.65,5.68,'1111122,1111122,1111122' 
COMPS,ioos:station:USF.COMPS:FHP:1,2016-04-01T07:06:00Z,28.1530,-82.8010,10.0,4.67,176.83,5.29,'1111122,1111122,1111122' 
COMPS,ioos:station:USF.COMPS:FHP:1,2016-04-01T07:12:00Z,28.1530,-82.8010,10.0,4.22,176.55,4.8,'1111122,1111122,1111122' 
COMPS,ioos:station:USF.COMPS:FHP:1,2016-04-01T07:18:00Z,28.1530,-82.8010,10.0,4.26,177.25,4.9,'1111122,1111122,1111122' 
COMPS,ioos:station:USF.COMPS:FHP:1,2016-04-01T07:24:00Z,28.1530,-82.8010,10.0,4.23,175.35,4.8,'1111122,1111122,1111122' 
COMPS,ioos:station:USF.COMPS:FHP:1,2016-04-01T07:30:00Z,28.1530,-82.8010,10.0,4.3,176.11,5.09,'1111122,1111122,1111122' 
COMPS,ioos:station:USF.COMPS:FHP:1,2016-04-01T07:36:00Z,28.1530,-82.8010,10.0,4.39,174.22,4.99,'1111122,1111122,1111122' 
COMPS,ioos:station:USF.COMPS:FHP:1,2016-04-01T07:42:00Z,28.1530,-82.8010,10.0,4.37,176.2,4.99,'1111122,1111122,1111122' 
COMPS,ioos:station:USF.COMPS:FHP:1,2016-04-01T07:48:00Z,28.1530,-82.8010,10.0,4.62,177.32,5.09,'1111122,1111122,1111122' 
COMPS,ioos:station:USF.COMPS:FHP:1,2016-04-01T07:54:00Z,28.1530,-82.8010,10.0,4.67,176.0,5.29,'1111122,1111122,1111122' 
COMPS,ioos:station:USF.COMPS:FHP:1,2016-04-01T08:00:00Z,28.1530,-82.8010,10.0,4.77,175.47,5.29,'1111122,1111122,1111122' 
COMPS,ioos:station:USF.COMPS:FHP:1,2016-04-01T08:06:00Z,28.1530,-82.8010,10.0,4.88,174.0,5.78,'1111122,1111122,1111122' 
COMPS,ioos:station:USF.COMPS:FHP:1,2016-04-01T08:12:00Z,28.1530,-82.8010,10.0,4.75,172.0,5.48,'1111122,1111122,1111122' 
COMPS,ioos:station:USF.COMPS:FHP:1,2016-04-01T08:18:00Z,28.1530,-82.8010,10.0,4.49,169.86,5.39,'1111122,1111122,1111122' 
COMPS,ioos:station:USF.COMPS:FHP:1,2016-04-01T08:24:00Z,28.1530,-82.8010,10.0,4.61,167.16,5.68,'1111122,1111122,1111122' 
COMPS,ioos:station:USF.COMPS:FHP:1,2016-04-01T08:30:00Z,28.1530,-82.8010,10.0,4.51,166.82,5.39,'1111122,1111122,1111122' 
COMPS,ioos:station:USF.COMPS:FHP:1,2016-04-01T08:36:00Z,28.1530,-82.8010,10.0,4.63,165.01,5.19,'1111122,1111122,1111122' 
COMPS,ioos:station:USF.COMPS:FHP:1,2016-04-01T08:42:00Z,28.1530,-82.8010,10.0,4.45,161.8,4.99,'1111122,1111122,1111122' 
COMPS,ioos:station:USF.COMPS:FHP:1,2016-04-01T08:48:00Z,28.1530,-82.8010,10.0,4.51,162.18,5.29,'1111122,1111122,1111122' 
COMPS,ioos:station:USF.COMPS:FHP:1,2016-04-01T08:54:00Z,28.1530,-82.8010,10.0,4.66,160.09,5.19,'1111122,1111122,1111122' 
COMPS,ioos:station:USF.COMPS:FHP:1,2016-04-01T09:00:00Z,28.1530,-82.8010,10.0,5.0,160.17,5.68,'1111122,1111122,1111122' 
COMPS,ioos:station:USF.COMPS:FHP:1,2016-04-01T09:06:00Z,28.1530,-82.8010,10.0,5.23,162.45,6.27,'1111122,1111122,1111122' 
COMPS,ioos:station:USF.COMPS:FHP:1,2016-04-01T09:12:00Z,28.1530,-82.8010,10.0,5.03,163.59,5.97,'1111122,1111122,1111122' 
COMPS,ioos:station:USF.COMPS:FHP:1,2016-04-01T09:18:00Z,28.1530,-82.8010,10.0,4.84,167.85,6.17,'1111122,1111122,1111122' 
COMPS,ioos:station:USF.COMPS:FHP:1,2016-04-01T09:24:00Z,28.1530,-82.8010,10.0,4.97,169.19,5.97,'1111122,1111122,1111122' 
COMPS,ioos:station:USF.COMPS:FHP:1,2016-04-01T09:30:00Z,28.1530,-82.8010,10.0,5.12,167.08,6.17,'1111122,1111122,1111122' 
COMPS,ioos:station:USF.COMPS:FHP:1,2016-04-01T09:36:00Z,28.1530,-82.8010,10.0,5.3,167.41,6.56,'1111122,1111122,1111122' 
COMPS,ioos:station:USF.COMPS:FHP:1,2016-04-01T09:42:00Z,28.1530,-82.8010,10.0,5.26,167.65,6.46,'1111122,1111122,1111122' 
COMPS,ioos:station:USF.COMPS:FHP:1,2016-04-01T09:48:00Z,28.1530,-82.8010,10.0,5.04,172.66,5.78,'1111122,1111122,1111122' 
COMPS,ioos:station:USF.COMPS:FHP:1,2016-04-01T09:54:00Z,28.1530,-82.8010,10.0,5.18,172.43,6.27,'1111122,1111122,1111122' 
COMPS,ioos:station:USF.COMPS:FHP:1,2016-04-01T10:00:00Z,28.1530,-82.8010,10.0,6.37,170.53,8.33,'1111122,1111122,1111122' 
COMPS,ioos:station:USF.COMPS:FHP:1,2016-04-01T10:06:00Z,28.1530,-82.8010,10.0,6.48,176.32,7.64,'1111122,1111122,1111122' 
COMPS,ioos:station:USF.COMPS:FHP:1,2016-04-01T10:12:00Z,28.1530,-82.8010,10.0,6.34,177.98,7.44,'1111122,1111122,1111122' 
COMPS,ioos:station:USF.COMPS:FHP:1,2016-04-01T10:18:00Z,28.1530,-82.8010,10.0,5.83,177.68,6.66,'1111122,1111122,1111122' 
COMPS,ioos:station:USF.COMPS:FHP:1,2016-04-01T10:24:00Z,28.1530,-82.8010,10.0,6.34,176.45,7.25,'1111122,1111122,1111122' 
COMPS,ioos:station:USF.COMPS:FHP:1,2016-04-01T10:30:00Z,28.1530,-82.8010,10.0,5.9,175.58,6.76,'1111122,1111122,1111122' 
COMPS,ioos:station:USF.COMPS:FHP:1,2016-04-01T10:36:00Z,28.1530,-82.8010,10.0,5.85,173.68,6.66,'1111122,1111122,1111122' 
COMPS,ioos:station:USF.COMPS:FHP:1,2016-04-01T10:42:00Z,28.1530,-82.8010,10.0,5.72,171.93,6.66,'1111122,1111122,1111122' 
COMPS,ioos:station:USF.COMPS:FHP:1,2016-04-01T10:48:00Z,28.1530,-82.8010,10.0,5.16,169.22,5.87,'1111122,1111122,1111122' 
COMPS,ioos:station:USF.COMPS:FHP:1,2016-04-01T10:54:00Z,28.1530,-82.8010,10.0,5.31,168.24,6.07,'1111122,1111122,1111122' 
COMPS,ioos:station:USF.COMPS:FHP:1,2016-04-01T11:00:00Z,28.1530,-82.8010,10.0,5.07,167.14,5.87,'1111122,1111122,1111122' 
COMPS,ioos:station:USF.COMPS:FHP:1,2016-04-01T11:06:00Z,28.1530,-82.8010,10.0,4.92,168.49,6.17,'1111122,1111122,1111122' 
COMPS,ioos:station:USF.COMPS:FHP:1,2016-04-01T11:12:00Z,28.1530,-82.8010,10.0,5.15,170.73,6.37,'1111122,1111122,1111122' 
COMPS,ioos:station:USF.COMPS:FHP:1,2016-04-01T11:18:00Z,28.1530,-82.8010,10.0,4.8,170.85,5.87,'1111122,1111122,1111122' 
COMPS,ioos:station:USF.COMPS:FHP:1,2016-04-01T11:24:00Z,28.1530,-82.8010,10.0,5.26,170.58,6.46,'1111122,1111122,1111122' 
COMPS,ioos:station:USF.COMPS:FHP:1,2016-04-01T11:30:00Z,28.1530,-82.8010,10.0,5.49,170.24,6.27,'1111122,1111122,1111122' 
COMPS,ioos:station:USF.COMPS:FHP:1,2016-04-01T11:36:00Z,28.1530,-82.8010,10.0,5.51,175.25,6.46,'1111122,1111122,1111122' 
COMPS,ioos:station:USF.COMPS:FHP:1,2016-04-01T11:42:00Z,28.1530,-82.8010,10.0,5.99,177.64,7.25,'1111122,1111122,1111122' 
COMPS,ioos:station:USF.COMPS:FHP:1,2016-04-01T11:48:00Z,28.1530,-82.8010,10.0,6.32,177.64,7.35,'1111122,1111122,1111122' 
COMPS,ioos:station:USF.COMPS:FHP:1,2016-04-01T11:54:00Z,28.1530,-82.8010,10.0,6.24,180.09,7.05,'1111122,1111122,1111122' 
COMPS,ioos:station:USF.COMPS:FHP:1,2016-04-01T12:00:00Z,28.1530,-82.8010,10.0,6.76,176.67,7.74,'1111122,1111122,1111122' 
COMPS,ioos:station:USF.COMPS:FHP:1,2016-04-01T12:06:00Z,28.1530,-82.8010,10.0,6.81,175.08,8.13,'1111122,1111122,1111122' 
COMPS,ioos:station:USF.COMPS:FHP:1,2016-04-01T12:12:00Z,28.1530,-82.8010,10.0,6.83,173.69,8.03,'1111122,1111122,1111122' 
COMPS,ioos:station:USF.COMPS:FHP:1,2016-04-01T12:18:00Z,28.1530,-82.8010,10.0,5.98,177.05,7.25,'1111122,1111122,1111122' 
COMPS,ioos:station:USF.COMPS:FHP:1,2016-04-01T12:24:00Z,28.1530,-82.8010,10.0,5.58,179.2,6.46,'1111122,1111122,1111122' 
COMPS,ioos:station:USF.COMPS:FHP:1,2016-04-01T12:30:00Z,28.1530,-82.8010,10.0,5.74,178.88,6.95,'1111122,1111122,1111122' 
COMPS,ioos:station:USF.COMPS:FHP:1,2016-04-01T12:36:00Z,28.1530,-82.8010,10.0,5.27,179.05,6.07,'1111122,1111122,1111122' 
COMPS,ioos:station:USF.COMPS:FHP:1,2016-04-01T12:42:00Z,28.1530,-82.8010,10.0,5.66,180.46,6.85,'1111122,1111122,1111122' 
COMPS,ioos:station:USF.COMPS:FHP:1,2016-04-01T12:48:00Z,28.1530,-82.8010,10.0,5.71,176.3,6.46,'1111122,1111122,1111122' 
COMPS,ioos:station:USF.COMPS:FHP:1,2016-04-01T12:54:00Z,28.1530,-82.8010,10.0,5.62,174.92,6.46,'1111122,1111122,1111122' 
COMPS,ioos:station:USF.COMPS:FHP:1,2016-04-01T13:00:00Z,28.1530,-82.8010,10.0,6.06,176.05,6.85,'1111122,1111122,1111122' 
COMPS,ioos:station:USF.COMPS:FHP:1,2016-04-01T13:06:00Z,28.1530,-82.8010,10.0,6.33,174.85,6.95,'1111122,1111122,1111122' 
COMPS,ioos:station:USF.COMPS:FHP:1,2016-04-01T13:12:00Z,28.1530,-82.8010,10.0,6.42,174.21,7.35,'1111122,1111122,1111122' 
COMPS,ioos:station:USF.COMPS:FHP:1,2016-04-01T13:18:00Z,28.1530,-82.8010,10.0,6.71,177.35,7.64,'1111122,1111122,1111122' 
COMPS,ioos:station:USF.COMPS:FHP:1,2016-04-01T13:24:00Z,28.1530,-82.8010,10.0,6.24,180.03,7.44,'1111122,1111122,1111122' 
COMPS,ioos:station:USF.COMPS:FHP:1,2016-04-01T13:30:00Z,28.1530,-82.8010,10.0,5.97,185.08,7.35,'1111122,1111122,1111122' 
COMPS,ioos:station:USF.COMPS:FHP:1,2016-04-01T13:36:00Z,28.1530,-82.8010,10.0,5.57,182.61,6.46,'1111122,1111122,1111122' 
COMPS,ioos:station:USF.COMPS:FHP:1,2016-04-01T13:42:00Z,28.1530,-82.8010,10.0,6.01,186.14,7.25,'1111122,1111122,1111122' 
COMPS,ioos:station:USF.COMPS:FHP:1,2016-04-01T13:48:00Z,28.1530,-82.8010,10.0,5.56,187.79,6.37,'1111122,1111122,1111122' 
COMPS,ioos:station:USF.COMPS:FHP:1,2016-04-01T13:54:00Z,28.1530,-82.8010,10.0,5.5,188.1,6.07,'1111122,1111122,1111122' 
COMPS,ioos:station:USF.COMPS:FHP:1,2016-04-01T14:00:00Z,28.1530,-82.8010,10.0,5.99,188.4,6.85,'1111122,1111122,1111122' 
COMPS,ioos:station:USF.COMPS:FHP:1,2016-04-01T14:06:00Z,28.1530,-82.8010,10.0,6.16,191.25,7.44,'1111122,1111122,1111122' 
COMPS,ioos:station:USF.COMPS:FHP:1,2016-04-01T14:12:00Z,28.1530,-82.8010,10.0,5.29,200.49,6.85,'1111122,1111122,1111122' 
COMPS,ioos:station:USF.COMPS:FHP:1,2016-04-01T14:18:00Z,28.1530,-82.8010,10.0,5.69,198.52,6.76,'1111122,1111122,1111122' 
COMPS,ioos:station:USF.COMPS:FHP:1,2016-04-01T14:24:00Z,28.1530,-82.8010,10.0,5.85,201.9,6.76,'1111122,1111122,1111122' 
COMPS,ioos:station:USF.COMPS:FHP:1,2016-04-01T14:30:00Z,28.1530,-82.8010,10.0,5.93,202.77,6.46,'1111122,1111122,1111122' 
COMPS,ioos:station:USF.COMPS:FHP:1,2016-04-01T14:36:00Z,28.1530,-82.8010,10.0,6.0,201.3,6.95,'1111122,1111122,1111122' 
COMPS,ioos:station:USF.COMPS:FHP:1,2016-04-01T14:42:00Z,28.1530,-82.8010,10.0,6.03,204.84,7.25,'1111122,1111122,1111122' 
COMPS,ioos:station:USF.COMPS:FHP:1,2016-04-01T14:48:00Z,28.1530,-82.8010,10.0,6.42,205.53,7.35,'1111122,1111122,1111122' 
COMPS,ioos:station:USF.COMPS:FHP:1,2016-04-01T14:54:00Z,28.1530,-82.8010,10.0,6.51,198.69,7.54,'1111122,1111122,1111122' 
COMPS,ioos:station:USF.COMPS:FHP:1,2016-04-01T15:00:00Z,28.1530,-82.8010,10.0,5.86,204.01,7.44,'1111122,1111122,1111122' 
COMPS,ioos:station:USF.COMPS:FHP:1,2016-04-01T15:06:00Z,28.1530,-82.8010,10.0,5.04,207.62,5.87,'1111122,1111122,1111122' 
COMPS,ioos:station:USF.COMPS:FHP:1,2016-04-01T15:12:00Z,28.1530,-82.8010,10.0,5.16,202.29,6.27,'1111122,1111122,1111122' 
COMPS,ioos:station:USF.COMPS:FHP:1,2016-04-01T15:18:00Z,28.1530,-82.8010,10.0,4.94,207.12,5.68,'1111122,1111122,1111122' 
COMPS,ioos:station:USF.COMPS:FHP:1,2016-04-01T15:24:00Z,28.1530,-82.8010,10.0,5.26,210.84,6.17,'1111122,1111122,1111122' 
COMPS,ioos:station:USF.COMPS:FHP:1,2016-04-01T15:30:00Z,28.1530,-82.8010,10.0,5.8,209.11,6.76,'1111122,1111122,1111122' 
COMPS,ioos:station:USF.COMPS:FHP:1,2016-04-01T15:36:00Z,28.1530,-82.8010,10.0,6.12,206.0,7.54,'1111122,1111122,1111122' 
COMPS,ioos:station:USF.COMPS:FHP:1,2016-04-01T15:42:00Z,28.1530,-82.8010,10.0,6.22,206.1,7.25,'1111122,1111122,1111122' 
COMPS,ioos:station:USF.COMPS:FHP:1,2016-04-01T15:48:00Z,28.1530,-82.8010,10.0,6.6,207.14,7.54,'1111122,1111122,1111122' 
COMPS,ioos:station:USF.COMPS:FHP:1,2016-04-01T15:54:00Z,28.1530,-82.8010,10.0,6.39,208.59,7.74,'1111122,1111122,1111122' 
COMPS,ioos:station:USF.COMPS:FHP:1,2016-04-01T16:00:00Z,28.1530,-82.8010,10.0,6.37,212.83,7.54,'1111122,1111122,1111122' 
COMPS,ioos:station:USF.COMPS:FHP:1,2016-04-01T16:06:00Z,28.1530,-82.8010,10.0,6.88,212.41,8.03,'1111122,1111122,1111122' 
COMPS,ioos:station:USF.COMPS:FHP:1,2016-04-01T16:12:00Z,28.1530,-82.8010,10.0,6.62,213.95,7.64,'1111122,1111122,1111122' 
COMPS,ioos:station:USF.COMPS:FHP:1,2016-04-01T16:18:00Z,28.1530,-82.8010,10.0,6.63,214.48,7.64,'1111122,1111122,1111122' 
COMPS,ioos:station:USF.COMPS:FHP:1,2016-04-01T16:24:00Z,28.1530,-82.8010,10.0,6.6,212.57,7.35,'1111122,1111122,1111122' 
COMPS,ioos:station:USF.COMPS:FHP:1,2016-04-01T16:30:00Z,28.1530,-82.8010,10.0,6.51,214.74,7.25,'1111122,1111122,1111122' 
COMPS,ioos:station:USF.COMPS:FHP:1,2016-04-01T16:36:00Z,28.1530,-82.8010,10.0,6.11,217.71,7.35,'1111122,1111122,1111122' 
COMPS,ioos:station:USF.COMPS:FHP:1,2016-04-01T16:42:00Z,28.1530,-82.8010,10.0,6.62,226.96,7.74,'1111122,1111122,1111122' 
COMPS,ioos:station:USF.COMPS:FHP:1,2016-04-01T16:48:00Z,28.1530,-82.8010,10.0,7.38,224.46,8.72,'1111122,1111122,1111122' 
COMPS,ioos:station:USF.COMPS:FHP:1,2016-04-01T16:54:00Z,28.1530,-82.8010,10.0,8.44,218.75,9.7,'1111122,1111122,1111122' 
COMPS,ioos:station:USF.COMPS:FHP:1,2016-04-01T17:00:00Z,28.1530,-82.8010,10.0,8.43,220.37,9.3,'1111122,1111122,1111122' 
COMPS,ioos:station:USF.COMPS:FHP:1,2016-04-01T17:06:00Z,28.1530,-82.8010,10.0,8.76,220.33,10.29,'1111122,1111122,1111122' 
COMPS,ioos:station:USF.COMPS:FHP:1,2016-04-01T17:12:00Z,28.1530,-82.8010,10.0,8.56,216.43,9.8,'1111122,1111122,1111122' 
COMPS,ioos:station:USF.COMPS:FHP:1,2016-04-01T17:18:00Z,28.1530,-82.8010,10.0,9.12,213.97,10.48,'1111122,1111122,1111122' 
COMPS,ioos:station:USF.COMPS:FHP:1,2016-04-01T17:24:00Z,28.1530,-82.8010,10.0,9.25,214.9,10.68,'1111122,1111122,1111122' 
COMPS,ioos:station:USF.COMPS:FHP:1,2016-04-01T17:30:00Z,28.1530,-82.8010,10.0,9.08,214.99,10.38,'1111122,1111122,1111122' 
COMPS,ioos:station:USF.COMPS:FHP:1,2016-04-01T17:36:00Z,28.1530,-82.8010,10.0,9.09,213.54,10.97,'1111122,1111122,1111122' 
COMPS,ioos:station:USF.COMPS:FHP:1,2016-04-01T17:42:00Z,28.1530,-82.8010,10.0,9.84,213.83,11.36,'1111122,1111122,1111122' 
COMPS,ioos:station:USF.COMPS:FHP:1,2016-04-01T17:48:00Z,28.1530,-82.8010,10.0,9.68,216.16,11.76,'1111122,1111122,1111122' 
COMPS,ioos:station:USF.COMPS:FHP:1,2016-04-01T17:54:00Z,28.1530,-82.8010,10.0,10.38,214.58,12.34,'1111122,1111122,1111122' 
COMPS,ioos:station:USF.COMPS:FHP:1,2016-04-01T18:00:00Z,28.1530,-82.8010,10.0,10.57,214.06,12.25,'1111122,1111122,1111122' 
COMPS,ioos:station:USF.COMPS:FHP:1,2016-04-01T18:06:00Z,28.1530,-82.8010,10.0,10.71,217.49,13.03,'1111122,1111122,1111122' 
COMPS,ioos:station:USF.COMPS:FHP:1,2016-04-01T18:12:00Z,28.1530,-82.8010,10.0,10.55,220.11,11.85,'1111122,1111122,1111122' 
COMPS,ioos:station:USF.COMPS:FHP:1,2016-04-01T18:18:00Z,28.1530,-82.8010,10.0,9.88,221.63,11.56,'1111122,1111122,1111122' 
COMPS,ioos:station:USF.COMPS:FHP:1,2016-04-01T18:24:00Z,28.1530,-82.8010,10.0,9.88,221.73,10.97,'1111122,1111122,1111122' 
COMPS,ioos:station:USF.COMPS:FHP:1,2016-04-01T18:30:00Z,28.1530,-82.8010,10.0,9.69,222.78,10.58,'1111122,1111122,1111122' 
COMPS,ioos:station:USF.COMPS:FHP:1,2016-04-01T18:36:00Z,28.1530,-82.8010,10.0,9.29,218.27,10.87,'1111122,1111122,1111122' 
COMPS,ioos:station:USF.COMPS:FHP:1,2016-04-01T18:42:00Z,28.1530,-82.8010,10.0,9.31,217.01,10.68,'1111122,1111122,1111122' 
COMPS,ioos:station:USF.COMPS:FHP:1,2016-04-01T18:48:00Z,28.1530,-82.8010,10.0,9.56,217.52,11.17,'1111122,1111122,1111122' 
COMPS,ioos:station:USF.COMPS:FHP:1,2016-04-01T18:54:00Z,28.1530,-82.8010,10.0,9.11,215.66,10.19,'1111122,1111122,1111122' 
COMPS,ioos:station:USF.COMPS:FHP:1,2016-04-01T19:00:00Z,28.1530,-82.8010,10.0,8.88,215.24,10.09,'1111122,1111122,1111122' 
COMPS,ioos:station:USF.COMPS:FHP:1,2016-04-01T19:06:00Z,28.1530,-82.8010,10.0,8.85,214.69,9.89,'1111122,1111122,1111122' 
COMPS,ioos:station:USF.COMPS:FHP:1,2016-04-01T19:12:00Z,28.1530,-82.8010,10.0,8.94,215.45,11.07,'1111122,1111122,1111122' 
COMPS,ioos:station:USF.COMPS:FHP:1,2016-04-01T19:18:00Z,28.1530,-82.8010,10.0,9.02,215.94,10.19,'1111122,1111122,1111122' 
COMPS,ioos:station:USF.COMPS:FHP:1,2016-04-01T19:24:00Z,28.1530,-82.8010,10.0,8.94,219.26,10.58,'1111122,1111122,1111122' 
COMPS,ioos:station:USF.COMPS:FHP:1,2016-04-01T19:30:00Z,28.1530,-82.8010,10.0,8.56,221.31,9.7,'1111122,1111122,1111122' 